User: anonymous   Login
Location: Unspecified
(0.0000°N, 0.0000°E)
Time: 15:00:39
(UTC+00:00)
Language:

AGILE - Orbit

View from above orbital plane
View from above orbital plane
View from above satellite
View from above satellite

Ground track
Ground track

The orbit data is extracted from the following two-line orbital elements,

1 31135U 07013A   14330.17431526  .00009477  00000-0  35679-3 0   962
2 31135 002.4665 151.0391 0016086 285.4291 074.3986 15.21932396420699
Epoch (UTC): 26 November 2014 04:11:00
Eccentricity: 0.0016086
inclination: 2.4665°
perigee height: 489 km
apogee height: 511 km
right ascension of ascending node: 151.0391°
argument of perigee: 285.4291°
revolutions per day: 15.21932396
mean anomaly at epoch: 74.3986°
orbit number at epoch: 42069

The dashed part of the orbit path shows where the satellite is in the earth's shadow,  

DLR